Location: Miles
(41.4492°N, 81.6087°W)
Time: 21:51:12
(UTC+00:00)

Vanguard 2 Rocket - Pass Details

Date: 25 September 2024
Orbit: 553 x 3298 km, 32.9° (Epoch: 12 October)

Event Time Altitude Azimuth Distance (km) Brightness Sun altitude
Rises 09:29:34 0° 271° (W) 4,716 - -20.8°
Reaches altitude 10° 09:32:38 10° 262° (W) 4,072 - -20.2°
Exits shadow 09:37:00 25° 242° (WSW) 3,479 9.2 -19.4°
Maximum altitude 09:42:35 34° 203° (SSW) 3,478 9.5 -18.4°
Drops below altitude 10° 09:57:19 10° 148° (SSE) 5,990 11.3 -15.7°
Sets 10:03:08 0° 141° (SE) 7,198 11.9 -14.7°
